Tracking 18843 objects as of 20-November-2017
HD Live streaming from Space Station
objects crossing your sky now

FENGYUN 1C DEB

Track FENGYUN 1C DEB now!
10-day predictions


NORAD ID: 30835
Int'l Code: 1999-025AVV
Perigee: 464.3 km
Apogee: 653.7 km
Inclination: 98.8 °
Period: 95.7 minutes
Semi major axis: 6929 km
RCS: 0.0137 m2 (small)
Launch date: May 10, 1999
Source: People's Republic of China (PRC)
Launch site: Taiyaun Space Center, China (TSC)

Note: This is SATELLITE DEBRIS
aabbcc
Your satellite tracking list
Your tracking list is empty




NASA's NSSDC Master Catalog

Two Line Element Set (TLE):
1 30835U 99025AVV 17323.88556205 +.00004801 +00000-0 +28051-3 0  9991
2 30835 098.7738 342.6603 0136689 040.9494 320.1898 15.04892194578824
Source of the keplerian elements: AFSPC